sat.trackr.live / text

‹ back to catalog

STARLINK-35187

NORAD 65521 · 2025-200B

PAYLOAD ACTIVE UNKNOWN

§ Identity

Operator
Country
US
Launch date
2025-09-06
Launch site
AFWTR
Launch vehicle
Mass (kg)
RCS (m²)

Purposes: comms

External: N2YO · Heavens-Above · Gunter

§ Orbital elements

Epoch: 2026-09-20T03:19:04.375776Z

Period
93.91 min
Inclination
97.2832°
Eccentricity
0.0001741
Mean motion
15.33455363 rev/d
Perigee alt
464.3 km
Apogee alt
466.7 km
Semi-major
6,843.6 km
B*
4.8549e-4
RAAN
329.4967°
Arg perigee
99.0993°
Mean anomaly
261.0447°
Rev number
5,858

§ Raw data

STARLINK-351871 65521U 25200B   26263.13824509  .00015636  00000+0  48549-3 0  99922 65521  97.2832 329.4967 0001741  99.0993 261.0447 15.33455363 58582

JSON: /api/v1/satellites/65521 · /tle

For live sub-satellite position, see the globe view (requires WebGL).

§ Visibility from observer

Set your observer location to see the next 7 days of passes ≥ 10°. The values pass through the URL so the page stays shareable.

No JS? Fill the form by hand. The geolocation button needs JavaScript.